Back to catalog

STARLINK-34207

AliveCommunicationsVLEO
NORAD 64333·PAYLOAD·🇺🇸 United States

Launched Jun 10, 2025 from Cape Canaveral Space Force Station

Loading…

Next Passes (next 24 hours)

TLE

FreshSource: CelesTrak SupGP

Epoch: Sep 14, 2026, 15:12 UTC

1 64333C 25124S   26257.63381944  .00035066  00000+0  12702-2 0  2573
2 64333  42.9991 134.7769 0001442 263.0561 164.6136 15.27557296    13

Track STARLINK-34207 in real time with AllMySat

Download on the App Store